LYRA-1

导读

LYRA-1是一颗由美国发射的人造卫星,于2025年1月14日成功进入预定轨道,是美国当年较早完成发射的航天器之一。作为美国航天领域的最新部署成果,该卫星承担着特定空间观测或技术验证任务,服役后将持续在轨运行,为相关领域的科学研究、技术应用提供空间数据支撑,进一步丰富美国在轨卫星星座的服务能力,推动航天技术应用与空间探索的持续发展。

基本信息
目录编号:
62664
目录名称:
LYRA-1
国际标识:
2025-009BH
轨道中心:
EARTH
卫星名称:
LYRA-1
卫星全名:
LYRA-1
卫星状态:
在轨 (已飞行605 天)
发射日期:
2025-01-14 UTC
国别 :
澳大利亚 (AU)
星等 :
--
该卫星已列入 空间交会检测服务 Space Conjunction Data Service (SCDS) ,当前飞行风险评估等级: 无高风险
轨道信息
数据来源 国际轨道数据
星历时间: 2026-09-11T12:52:10+0800
8小时前
查看轨道信息
半长轴: 6883.471km
偏心率: 0.0007228
轨道倾角: 97.392°
近地点辐角 247.861°
升交点赤经 327.033°
平近点角 112.186°
近地点: 500.358km
远地点: 510.31km
周期: 94.726分钟
每日圈数: 15.201681
详细信息
使用方式:
暂无
2D轨道图
3D轨道图
轨道高度分析图
轨道倾角分析图
轨道综合分析图
查看轨道综合分析图
交会数据列表
事件ID 空间交会对象 最接近时刻(TCA) 交会距离 交会风险概率(CRP) 交会风险指数(CRI) 操作
CDM_260913-113605-185406-266422
LYRA-1 (62664)
2026-09-13T
11:36:14+0000
1.286 km
极远距离
9.168844E-6 低风险 0.54
CDM_260911-224106-266406-844324
LYRA-1 (62664)
2026-09-11T
22:41:34+0000
1.555 km
极远距离
5.400482E-6 低风险 0.5
CDM_260912-221304-367906-266423
STARS-AO (43679)
LYRA-1 (62664)
2026-09-12T
22:13:55+0000
1.758 km
极远距离
4.016593E-6 低风险 0.47
与全量物体交会距离演化趋势
与全量物体交会风险概率演化趋势